| time (UTC) | temp F | wind direction | speed MPH | gust MPH | rain 1hr in | rain 24hr in | rain mn in | humidity % | barometer mb |
| 20260505083221 | 62 | 113 | 7.0 | 8.0 | 0.00 | 0.00 | 0.16 | 74 | 998.0 |
| 20260505082719 | 61 | 173 | 5.0 | 4.0 | 0.00 | 0.00 | 0.16 | 74 | 998.0 |
| 20260505082219 | 62 | 211 | 3.0 | 8.0 | 0.00 | 0.00 | 0.16 | 74 | 998.0 |
| 20260505081720 | 60 | 77 | 0.0 | 0.0 | 0.00 | 0.00 | 0.16 | 77 | 998.0 |
| 20260505081220 | 62 | 203 | 2.0 | 5.0 | 0.00 | 0.00 | 0.16 | 73 | 998.0 |
| 20260505080719 | 63 | 69 | 6.0 | 10.0 | 0.00 | 0.00 | 0.16 | 71 | 998.0 |
| 20260505080220 | 62 | 79 | 3.0 | 8.0 | 0.00 | 0.00 | 0.16 | 73 | 998.0 |
| 20260505075719 | 61 | 170 | 7.0 | 3.0 | 0.00 | 0.00 | 0.16 | 80 | 998.0 |
| 20260505075219 | 61 | 118 | 2.0 | 5.0 | 0.00 | 0.00 | 0.16 | 78 | 998.0 |
| 20260505074720 | 59 | 100 | 0.0 | 4.0 | 0.00 | 0.00 | 0.16 | 84 | 998.0 |
| 20260505074220 | 56 | 70 | 0.0 | 0.0 | 0.00 | 0.00 | 0.16 | 91 | 998.0 |
| 20260505073720 | 55 | 68 | 0.0 | 2.0 | 0.00 | 0.00 | 0.16 | 94 | 998.0 |
| 20260505073219 | 55 | 73 | 0.0 | 0.0 | 0.00 | 0.00 | 0.16 | 96 | 998.0 |
| 20260505072719 | 55 | 71 | 0.0 | 0.0 | 0.00 | 0.00 | 0.16 | 96 | 998.0 |
| 20260505072220 | 55 | 69 | 0.0 | 0.0 | 0.00 | 0.00 | 0.16 | 96 | 998.0 |
| 20260505071720 | 55 | 60 | 0.0 | 0.0 | 0.00 | 0.00 | 0.16 | 96 | 998.0 |
| 20260505071220 | 54 | 57 | 0.0 | 0.0 | 0.00 | 0.00 | 0.16 | 95 | 998.0 |
| 20260505070723 | 55 | 57 | 0.0 | 0.0 | 0.00 | 0.00 | 0.16 | 95 | 998.0 |
| 20260505070219 | 55 | 61 | 0.0 | 0.0 | 0.00 | 0.00 | 0.16 | 94 | 998.0 |
| 20260505065720 | 55 | 66 | 0.0 | 0.0 | 0.00 | 0.00 | 0.16 | 94 | 999.0 |
| 20260505065220 | 55 | 59 | 0.0 | 0.0 | 0.00 | 0.00 | 0.16 | 94 | 999.0 |
| 20260505064719 | 55 | 39 | 0.0 | 0.0 | 0.00 | 0.00 | 0.16 | 93 | 999.0 |
| 20260505064219 | 56 | 39 | 2.0 | 2.0 | 0.00 | 0.00 | 0.16 | 93 | 999.0 |
| 20260505063719 | 56 | 41 | 0.0 | 0.0 | 0.00 | 0.00 | 0.16 | 91 | 999.0 |
| 20260505063219 | 57 | 88 | 3.0 | 5.0 | 0.00 | 0.00 | 0.16 | 89 | 999.0 |
| 20260505062720 | 56 | 253 | 1.0 | 4.0 | 0.00 | 0.00 | 0.16 | 90 | 999.0 |
| 20260505062220 | 56 | 34 | 2.0 | 4.0 | 0.00 | 0.00 | 0.16 | 91 | 999.0 |
| 20260505061724 | 56 | 85 | 0.0 | 2.0 | 0.00 | 0.00 | 0.16 | 92 | 999.0 |
| 20260505061219 | 55 | 83 | 1.0 | 2.0 | 0.00 | 0.00 | 0.16 | 92 | 999.0 |
| 20260505060721 | 55 | 236 | 3.0 | 2.0 | 0.10 | 0.00 | 0.16 | 93 | 999.0 |
| 20260505060219 | 55 | 349 | 4.0 | 3.0 | 0.10 | 0.00 | 0.16 | 92 | 999.0 |
| 20260505055719 | 55 | 58 | 2.0 | 5.0 | 0.11 | 0.00 | 0.16 | 92 | 999.0 |
| 20260505055219 | 55 | 72 | 0.0 | 0.0 | 0.13 | 0.00 | 0.16 | 93 | 999.0 |
| 20260505054720 | 55 | 55 | 3.0 | 2.0 | 0.14 | 0.00 | 0.16 | 93 | 999.0 |
| 20260505054220 | 56 | 6 | 0.0 | 3.0 | 0.15 | 0.00 | 0.16 | 93 | 999.0 |
| 20260505053720 | 57 | 314 | 3.0 | 5.0 | 0.16 | 0.00 | 0.15 | 92 | 999.0 |
| 20260505053220 | 58 | 292 | 2.0 | 4.0 | 0.09 | 0.00 | 0.08 | 90 | 999.0 |
| 20260505052720 | 59 | 132 | 1.0 | 11.0 | 0.02 | 0.00 | 0.02 | 82 | 999.0 |
| 20260505052220 | 60 | 77 | 4.0 | 9.0 | 0.01 | 0.00 | 0.01 | 78 | 999.0 |
| 20260505051719 | 60 | 167 | 0.0 | 1.0 | 0.02 | 0.00 | 0.01 | 80 | 999.0 |
| 20260505051219 | 60 | 51 | 1.0 | 4.0 | 0.02 | 0.00 | 0.01 | 78 | 999.0 |
| 20260505050721 | 60 | 84 | 1.0 | 2.0 | 0.01 | 0.00 | 0.00 | 78 | 999.0 |
| 20260505050220 | 62 | 80 | 3.0 | 8.0 | 0.01 | 0.00 | 0.00 | 73 | 999.0 |
| 20260505041719 | 61 | 225 | 0.0 | 1.0 | 0.07 | 0.00 | 0.00 | 78 | 999.0 |
| 20260505041222 | 62 | 44 | 3.0 | 13.0 | 0.08 | 0.00 | 0.00 | 77 | 999.0 |
| 20260505040721 | 62 | 88 | 0.0 | 5.0 | 0.11 | 0.00 | 0.00 | 77 | 999.0 |
| 20260505040220 | 60 | 262 | 4.0 | 7.0 | 0.17 | 0.00 | 0.03 | 79 | 999.0 |
| 20260505035720 | 60 | 62 | 0.0 | 1.0 | 0.28 | 0.00 | 0.03 | 81 | 999.0 |
| 20260505035222 | 62 | 69 | 6.0 | 4.0 | 1.01 | 0.00 | 0.01 | 72 | 999.0 |
| 20260505034720 | 64 | 160 | 4.0 | 6.0 | 0.00 | 0.00 | 0.00 | 64 | 999.0 |
| 20260505034223 | 64 | 96 | 6.0 | 5.0 | 0.00 | 0.00 | 0.00 | 64 | 999.0 |
| 20260505033721 | 64 | 48 | 4.0 | 10.0 | 0.00 | 0.00 | 0.00 | 64 | 999.0 |
| 20260505033222 | 63 | 95 | 4.0 | 6.0 | 0.00 | 0.00 | 0.00 | 64 | 999.0 |
| 20260505032721 | 64 | 171 | 7.0 | 9.0 | 0.00 | 0.00 | 0.00 | 64 | 999.0 |
| 20260505032221 | 63 | 81 | 0.0 | 6.0 | 0.00 | 0.00 | 0.00 | 66 | 999.0 |
| 20260505031719 | 63 | 168 | 3.0 | 1.0 | 0.00 | 0.00 | 0.00 | 67 | 999.0 |
| 20260505031219 | 63 | 90 | 3.0 | 4.0 | 0.00 | 0.00 | 0.00 | 66 | 999.0 |
| 20260505030720 | 64 | 82 | 2.0 | 7.0 | 0.00 | 0.00 | 0.00 | 65 | 999.0 |
| 20260505030220 | 63 | 66 | 4.0 | 5.0 | 0.00 | 0.00 | 0.00 | 65 | 999.0 |
| 20260505025720 | 63 | 86 | 4.0 | 9.0 | 0.00 | 0.00 | 0.00 | 66 | 999.0 |
| 20260505025220 | 64 | 158 | 9.0 | 5.0 | 0.00 | 0.00 | 0.00 | 62 | 999.0 |
| 20260505024719 | 66 | 313 | 3.0 | 5.0 | 0.00 | 0.00 | 0.00 | 55 | 999.0 |
| 20260505024220 | 65 | 123 | 5.0 | 7.0 | 0.00 | 0.00 | 0.00 | 55 | 999.0 |
| 20260505023720 | 66 | 141 | 5.0 | 8.0 | 0.00 | 0.00 | 0.00 | 54 | 999.0 |
| 20260505023219 | 66 | 194 | 2.0 | 7.0 | 0.00 | 0.00 | 0.00 | 54 | 999.0 |
| 20260505022722 | 66 | 74 | 4.0 | 5.0 | 0.00 | 0.00 | 0.00 | 54 | 999.0 |
| 20260505022220 | 66 | 50 | 1.0 | 6.0 | 0.00 | 0.00 | 0.00 | 54 | 999.0 |
| 20260505021719 | 67 | 230 | 4.0 | 7.0 | 0.00 | 0.00 | 0.00 | 52 | 999.0 |
| 20260505021220 | 67 | 61 | 4.0 | 7.0 | 0.00 | 0.00 | 0.00 | 50 | 999.0 |
| 20260505020720 | 67 | 109 | 1.0 | 10.0 | 0.00 | 0.00 | 0.00 | 50 | 999.0 |
| 20260505020222 | 67 | 62 | 3.0 | 4.0 | 0.00 | 0.00 | 0.00 | 46 | 999.0 |
| 20260505015720 | 68 | 349 | 2.0 | 2.0 | 0.00 | 0.00 | 0.00 | 45 | 999.0 |
| 20260505015219 | 65 | 285 | 14.0 | 4.0 | 0.00 | 0.00 | 0.00 | 48 | 999.0 |
| 20260505014721 | 65 | 58 | 1.0 | 4.0 | 0.00 | 0.00 | 0.00 | 45 | 999.0 |
| 20260505014220 | 64 | 53 | 0.0 | 3.0 | 0.00 | 0.00 | 0.00 | 47 | 999.0 |
| 20260505013720 | 63 | 80 | 0.0 | 0.0 | 0.00 | 0.00 | 0.00 | 47 | 999.0 |
| 20260505013219 | 62 | 72 | 0.0 | 2.0 | 0.00 | 0.00 | 0.00 | 47 | 999.0 |
| 20260505012720 | 63 | 63 | 0.0 | 1.0 | 0.00 | 0.00 | 0.00 | 46 | 999.0 |
| 20260505012220 | 63 | 58 | 0.0 | 2.0 | 0.00 | 0.00 | 0.00 | 45 | 999.0 |
| 20260505011719 | 64 | 56 | 1.0 | 2.0 | 0.00 | 0.00 | 0.00 | 44 | 999.0 |
| 20260505011222 | 63 | 70 | 1.0 | 3.0 | 0.00 | 0.00 | 0.00 | 44 | 999.0 |
| 20260505010720 | 63 | 60 | 0.0 | 0.0 | 0.00 | 0.00 | 0.00 | 46 | 999.0 |
| 20260505010220 | 62 | 71 | 0.0 | 1.0 | 0.00 | 0.00 | 0.00 | 50 | 999.0 |
| 20260505005720 | 62 | 58 | 0.0 | 0.0 | 0.00 | 0.00 | 0.00 | 49 | 999.0 |
| 20260505005220 | 63 | 69 | 0.0 | 0.0 | 0.00 | 0.00 | 0.00 | 45 | 999.0 |
| 20260505004720 | 64 | 76 | 1.0 | 2.0 | 0.00 | 0.00 | 0.00 | 44 | 999.0 |
| 20260505004220 | 64 | 110 | 0.0 | 3.0 | 0.00 | 0.00 | 0.00 | 44 | 999.0 |
| 20260505003721 | 63 | 71 | 3.0 | 0.0 | 0.00 | 0.00 | 0.00 | 44 | 999.0 |
| 20260505003221 | 63 | 61 | 0.0 | 0.0 | 0.00 | 0.00 | 0.00 | 46 | 999.0 |
| 20260505002719 | 64 | 53 | 1.0 | 5.0 | 0.00 | 0.00 | 0.00 | 42 | 999.0 |
| 20260505002219 | 64 | 58 | 0.0 | 0.0 | 0.00 | 0.00 | 0.00 | 45 | 999.0 |
| 20260505001720 | 65 | 33 | 0.0 | 0.0 | 0.00 | 0.00 | 0.00 | 41 | 999.0 |
| 20260505001220 | 65 | 133 | 2.0 | 5.0 | 0.00 | 0.00 | 0.00 | 40 | 999.0 |
| 20260505000720 | 65 | 62 | 0.0 | 1.0 | 0.00 | 0.00 | 0.00 | 45 | 999.0 |
| 20260505000219 | 65 | 63 | 0.0 | 1.0 | 0.00 | 0.00 | 0.00 | 43 | 999.0 |
| 20260504235720 | 65 | 43 | 0.0 | 2.0 | 0.00 | 0.00 | 0.00 | 44 | 999.0 |
| 20260504235219 | 65 | 66 | 0.0 | 2.0 | 0.00 | 0.00 | 0.00 | 40 | 999.0 |
| 20260504234719 | 66 | 45 | 0.0 | 5.0 | 0.00 | 0.00 | 0.00 | 39 | 999.0 |
| 20260504234220 | 65 | 274 | 0.0 | 0.0 | 0.00 | 0.00 | 0.00 | 45 | 999.0 |
| 20260504233720 | 66 | 33 | 0.0 | 2.0 | 0.00 | 0.00 | 0.00 | 41 | 999.0 |
| 20260504233220 | 66 | 58 | 0.0 | 0.0 | 0.00 | 0.00 | 0.00 | 41 | 999.0 |
| 20260504232719 | 67 | 60 | 1.0 | 1.0 | 0.00 | 0.00 | 0.00 | 41 | 999.0 |
| 20260504232222 | 67 | 47 | 0.0 | 7.0 | 0.00 | 0.00 | 0.00 | 45 | 999.0 |
| 20260504231721 | 68 | 78 | 0.0 | 4.0 | 0.00 | 0.00 | 0.00 | 42 | 999.0 |
| 20260504231220 | 69 | 100 | 0.0 | 5.0 | 0.00 | 0.00 | 0.00 | 39 | 999.0 |
| 20260504230720 | 69 | 285 | 2.0 | 2.0 | 0.00 | 0.00 | 0.00 | 39 | 999.0 |
| 20260504230220 | 68 | 228 | 4.0 | 3.0 | 0.00 | 0.00 | 0.00 | 38 | 999.0 |
| 20260504225720 | 68 | 6 | 1.0 | 2.0 | 0.00 | 0.00 | 0.00 | 44 | 999.0 |
| 20260504225222 | 68 | 36 | 3.0 | 2.0 | 0.00 | 0.00 | 0.00 | 42 | 999.0 |
| 20260504224723 | 68 | 34 | 0.0 | 2.0 | 0.00 | 0.00 | 0.00 | 43 | 999.0 |
| 20260504224219 | 68 | 189 | 0.0 | 2.0 | 0.00 | 0.00 | 0.00 | 41 | 999.0 |
| 20260504223720 | 69 | 46 | 1.0 | 6.0 | 0.00 | 0.00 | 0.00 | 40 | 999.0 |
| 20260504223220 | 70 | 74 | 0.0 | 2.0 | 0.00 | 0.00 | 0.00 | 40 | 999.0 |
| 20260504222721 | 71 | 238 | 0.0 | 2.0 | 0.00 | 0.00 | 0.00 | 41 | 999.0 |
| 20260504222221 | 70 | 56 | 0.0 | 2.0 | 0.00 | 0.00 | 0.00 | 39 | 999.0 |
| 20260504221721 | 69 | 59 | 5.0 | 8.0 | 0.00 | 0.00 | 0.00 | 40 | 999.0 |
| 20260504221221 | 69 | 50 | 3.0 | 4.0 | 0.00 | 0.00 | 0.00 | 42 | 999.0 |
| 20260504220720 | 69 | 52 | 0.0 | 1.0 | 0.00 | 0.00 | 0.00 | 43 | 999.0 |
| 20260504220222 | 70 | 69 | 2.0 | 2.0 | 0.00 | 0.00 | 0.00 | 43 | 999.0 |
| 20260504215721 | 70 | 45 | 0.0 | 2.0 | 0.00 | 0.00 | 0.00 | 39 | 999.0 |
| 20260504215223 | 71 | 70 | 1.0 | 3.0 | 0.00 | 0.00 | 0.00 | 40 | 999.0 |
| 20260504214720 | 71 | 57 | 0.0 | 2.0 | 0.00 | 0.00 | 0.00 | 38 | 999.0 |
| 20260504214220 | 71 | 244 | 4.0 | 5.0 | 0.00 | 0.00 | 0.00 | 39 | 999.0 |
| 20260504213720 | 72 | 133 | 0.0 | 3.0 | 0.00 | 0.00 | 0.00 | 35 | 999.0 |
| 20260504213222 | 71 | 283 | 3.0 | 2.0 | 0.00 | 0.00 | 0.00 | 40 | 999.0 |
| 20260504212721 | 71 | 286 | 2.0 | 2.0 | 0.00 | 0.00 | 0.00 | 39 | 999.0 |
| 20260504212221 | 71 | 44 | 0.0 | 3.0 | 0.00 | 0.00 | 0.00 | 40 | 999.0 |
| 20260504211722 | 73 | 62 | 1.0 | 2.0 | 0.00 | 0.00 | 0.00 | 37 | 999.0 |
| 20260504211221 | 72 | 32 | 3.0 | 4.0 | 0.00 | 0.00 | 0.00 | 40 | 999.0 |
| 20260504210723 | 71 | 52 | 0.0 | 17.0 | 0.00 | 0.00 | 0.00 | 38 | 999.0 |
| 20260504210221 | 75 | 350 | 0.0 | 0.0 | 0.00 | 0.00 | 0.00 | 36 | 999.0 |
| 20260504205722 | 74 | 335 | 3.0 | 3.0 | 0.00 | 0.00 | 0.00 | 35 | 1000.0 |
| 20260504205221 | 76 | 340 | 3.0 | 2.0 | 0.00 | 0.00 | 0.00 | 36 | 1000.0 |
| 20260504204722 | 76 | 12 | 0.0 | 3.0 | 0.00 | 0.00 | 0.00 | 37 | 1000.0 |
| 20260504204220 | 76 | 56 | 0.0 | 1.0 | 0.00 | 0.00 | 0.00 | 35 | 1000.0 |
| 20260504203719 | 73 | 33 | 1.0 | 4.0 | 0.00 | 0.00 | 0.00 | 43 | 1000.0 |
| 20260504203222 | 74 | 58 | 0.0 | 4.0 | 0.00 | 0.00 | 0.00 | 38 | 1000.0 |
| 20260504202722 | 74 | 347 | 2.0 | 7.0 | 0.00 | 0.00 | 0.00 | 39 | 1000.0 |
| 20260504202223 | 76 | 35 | 0.0 | 3.0 | 0.00 | 0.00 | 0.00 | 37 | 1000.0 |
| 20260504201720 | 73 | 48 | 0.0 | 9.0 | 0.00 | 0.00 | 0.00 | 38 | 1000.0 |
| 20260504201220 | 73 | 40 | 1.0 | 3.0 | 0.00 | 0.00 | 0.00 | 38 | 1000.0 |
| 20260504200722 | 73 | 310 | 4.0 | 5.0 | 0.00 | 0.00 | 0.00 | 37 | 1000.0 |
| 20260504200220 | 76 | 310 | 2.0 | 3.0 | 0.00 | 0.00 | 0.00 | 35 | 1000.0 |
| 20260504195722 | 79 | 45 | 0.0 | 2.0 | 0.00 | 0.00 | 0.00 | 39 | 1001.0 |
| 20260504195221 | 75 | 31 | 0.0 | 0.0 | 0.00 | 0.00 | 0.00 | 36 | 1001.0 |
| 20260504194724 | 76 | 309 | 0.0 | 2.0 | 0.00 | 0.00 | 0.00 | 38 | 1001.0 |
| 20260504194224 | 74 | 300 | 6.0 | 4.0 | 0.00 | 0.00 | 0.00 | 36 | 1001.0 |
| 20260504193721 | 78 | 307 | 2.0 | 0.0 | 0.00 | 0.00 | 0.00 | 34 | 1001.0 |
| 20260504193223 | 76 | 322 | 5.0 | 2.0 | 0.00 | 0.00 | 0.00 | 36 | 1001.0 |
| 20260504192722 | 72 | 55 | 2.0 | 2.0 | 0.00 | 0.00 | 0.00 | 45 | 1001.0 |
| 20260504192220 | 73 | 274 | 3.0 | 6.0 | 0.00 | 0.00 | 0.00 | 37 | 1001.0 |
| 20260504191721 | 71 | 214 | 4.0 | 4.0 | 0.00 | 0.00 | 0.00 | 40 | 1001.0 |
| 20260504191221 | 73 | 281 | 5.0 | 6.0 | 0.00 | 0.00 | 0.00 | 38 | 1001.0 |
| 20260504190719 | 76 | 48 | 0.0 | 3.0 | 0.00 | 0.00 | 0.00 | 37 | 1001.0 |
| 20260504190221 | 75 | 259 | 4.0 | 2.0 | 0.00 | 0.00 | 0.00 | 38 | 1001.0 |
| 20260504185722 | 74 | 272 | 3.0 | 2.0 | 0.00 | 0.00 | 0.00 | 39 | 1001.0 |
| 20260504185219 | 73 | 284 | 3.0 | 3.0 | 0.00 | 0.00 | 0.00 | 41 | 1001.0 |
| 20260504184721 | 71 | 324 | 3.0 | 4.0 | 0.00 | 0.00 | 0.00 | 41 | 1001.0 |
| 20260504184221 | 72 | 50 | 1.0 | 3.0 | 0.00 | 0.00 | 0.00 | 41 | 1001.0 |
| 20260504183722 | 74 | 53 | 0.0 | 2.0 | 0.00 | 0.00 | 0.00 | 40 | 1001.0 |
| 20260504183221 | 72 | 352 | 1.0 | 1.0 | 0.00 | 0.00 | 0.00 | 46 | 1001.0 |
| 20260504182722 | 72 | 64 | 0.0 | 3.0 | 0.00 | 0.00 | 0.00 | 40 | 1001.0 |
| 20260504182224 | 72 | 307 | 2.0 | 3.0 | 0.00 | 0.00 | 0.00 | 41 | 1001.0 |
| 20260504181724 | 70 | 58 | 0.0 | 5.0 | 0.00 | 0.00 | 0.00 | 44 | 1001.0 |
| 20260504181223 | 67 | 231 | 3.0 | 4.0 | 0.00 | 0.00 | 0.00 | 44 | 1001.0 |
| 20260504180722 | 70 | 293 | 0.0 | 3.0 | 0.00 | 0.00 | 0.00 | 48 | 1001.0 |
| 20260504180221 | 70 | 335 | 0.0 | 1.0 | 0.00 | 0.00 | 0.00 | 43 | 1001.0 |
| 20260504175722 | 68 | 298 | 0.0 | 8.0 | 0.00 | 0.00 | 0.00 | 47 | 1002.0 |
| 20260504175221 | 67 | 276 | 4.0 | 9.0 | 0.00 | 0.00 | 0.00 | 46 | 1002.0 |
| 20260504174721 | 69 | 302 | 6.0 | 4.0 | 0.00 | 0.00 | 0.00 | 44 | 1002.0 |
| 20260504174221 | 67 | 4 | 1.0 | 5.0 | 0.00 | 0.00 | 0.00 | 46 | 1002.0 |
| 20260504173721 | 69 | 8 | 2.0 | 3.0 | 0.00 | 0.00 | 0.00 | 43 | 1002.0 |
| 20260504173221 | 67 | 52 | 2.0 | 8.0 | 0.00 | 0.00 | 0.00 | 46 | 1002.0 |
| 20260504172722 | 69 | 354 | 5.0 | 7.0 | 0.00 | 0.00 | 0.00 | 46 | 1002.0 |
| 20260504172221 | 69 | 241 | 2.0 | 3.0 | 0.00 | 0.00 | 0.00 | 44 | 1002.0 |
| 20260504171722 | 68 | 262 | 3.0 | 5.0 | 0.00 | 0.00 | 0.00 | 43 | 1002.0 |
| 20260504171222 | 68 | 219 | 1.0 | 6.0 | 0.00 | 0.00 | 0.00 | 45 | 1002.0 |
| 20260504170721 | 69 | 254 | 0.0 | 4.0 | 0.00 | 0.00 | 0.00 | 42 | 1002.0 |
| 20260504170222 | 68 | 146 | 0.0 | 2.0 | 0.00 | 0.00 | 0.00 | 46 | 1002.0 |
| 20260504160223 | 69 | 4 | 7.0 | 5.0 | 0.00 | 0.00 | 0.00 | 40 | 1002.0 |
| 20260504150721 | 68 | 303 | 5.0 | 5.0 | 0.00 | 0.00 | 0.00 | 40 | 1003.0 |
| 20260504150222 | 68 | 36 | 0.0 | 4.0 | 0.00 | 0.00 | 0.00 | 43 | 1003.0 |
| 20260504141223 | 65 | 44 | 2.0 | 6.0 | 0.00 | 0.00 | 0.00 | 47 | 1003.0 |
| 20260504140237 | 65 | 128 | 3.0 | 8.0 | 0.00 | 0.00 | 0.00 | 44 | 1003.0 |
| 20260504130722 | 61 | 53 | 3.0 | 2.0 | 0.00 | 0.00 | 0.00 | 46 | 1003.0 |
| 20260504130222 | 61 | 80 | 4.0 | 4.0 | 0.00 | 0.00 | 0.00 | 47 | 1003.0 |
| 20260504120223 | 56 | 98 | 6.0 | 11.0 | 0.00 | 0.00 | 0.00 | 51 | 1003.0 |
| 20260504110721 | 52 | 57 | 2.0 | 7.0 | 0.00 | 0.00 | 0.00 | 56 | 1003.0 |
| 20260504110223 | 52 | 49 | 3.0 | 8.0 | 0.00 | 0.00 | 0.00 | 56 | 1003.0 |
| 20260504100238 | 51 | 130 | 6.0 | 4.0 | 0.00 | 0.00 | 0.00 | 56 | 1003.0 |